Regional Weather Roundup
Issued by NWS

Home | Current Version | Previous Version | Text Only | Print | Product List | Glossary On
Versions: 1 2 3 4 5 6 7 8 9 10 11 12 13 14 15 16 17 18 19 20 21 22 23 24 25 26 27
000
ASUS46 KSEW 250610
RWRWA

WASHINGTON REGIONAL WEATHER ROUNDUP
NATIONAL WEATHER SERVICE SEATTLE WA
1000 PM PST FRI NOV 24 2017

NOTE:"FAIR" INDICATES FEW OR NO CLOUDS BELOW 12,000 FEET WITH NO
SIGNIFICANT WEATHER AND/OR OBSTRUCTIONS TO VISIBILITY.

WAZ507-509-555>559-250700-
SEATTLE, TACOMA, EVERETT, AND VICINITY

CITY           SKY/WX    TMP DP  RH WIND       PRES   REMARKS
EVERETT        CLOUDY    48  41  76 SE16      30.08R
6HR MIN TEMP:  46; 6HR MAX TEMP:  48; 6HR PCP: TRACE;

BOEING FIELD   MOCLDY    48  42  80 SE9       30.10R
6HR MIN TEMP:  48; 6HR MAX TEMP:  51; 6HR PCP: TRACE;

RENTON         CLOUDY    49  44  83 E3        30.10R
6HR MIN TEMP:  49; 6HR MAX TEMP:  51; 6HR PCP: TRACE;

SEATAC AIRPORT CLOUDY    50  39  66 S9        30.10R
6HR MIN TEMP:  48; 6HR MAX TEMP:  50; 6HR PCP:  0.01;

JBLM-MCCHORD   CLOUDY    47  43  86 S7        30.10R
6HR MIN TEMP:  45; 6HR MAX TEMP:  49;

PUYALLUP       CLOUDY    48  39  71 S5        30.10S
BREMERTON      MOCLDY    46  44  93 S10       30.08R
6HR MIN TEMP:  46; 6HR MAX TEMP:  47; 6HR PCP:  0.02;

JBLM-FT LEWIS  MOCLDY    46  46  97 SE8       30.09S
6HR MIN TEMP:  45; 6HR MAX TEMP:  50;

TACOMA NARROWS PTCLDY    48  42  80 S8        30.10R
6HR MIN TEMP:  48; 6HR MAX TEMP:  49;

$$

WAZ001-503-506-510-514-515-250700-
NORTH INTERIOR

CITY           SKY/WX    TMP DP  RH WIND       PRES   REMARKS
BELLINGHAM     CLOUDY    51  43  74 SE18G28   30.02R
6HR MIN TEMP:  50; 6HR MAX TEMP:  51;

FRIDAY HARBOR  CLOUDY    49  46  90 SE8       30.03R
6HR MIN TEMP:  48; 6HR MAX TEMP:  49;

EASTSOUND      CLOUDY    50  45  81 S9G18     30.02R
PORT ANGELES   CLOUDY    41  41 100 SE3       30.02R
6HR MIN TEMP:  41; 6HR MAX TEMP:  48; 6HR PCP: TRACE;

EDIZ HOOK      FAIR      45  42  89 CALM      30.02R
6HR MIN TEMP:  45; 6HR MAX TEMP:  48;

PORT TOWNSEND  CLOUDY    50  45  81 VRB7G18   30.02S
NAS WHIDBEY    CLOUDY    53  42  66 S17G24    30.07R
6HR MIN TEMP:  51; 6HR MAX TEMP:  53; 6HR PCP: TRACE;

ARLINGTON      CLOUDY    49  42  77 SE16      30.08R
6HR MIN TEMP:  48; 6HR MAX TEMP:  49;

BURLINGTON     CLOUDY    50  43  76 SE14G22   30.05R
$$

WAZ020-022-039-040-504-511-512-250700-
SOUTHWEST INTERIOR

CITY           SKY/WX    TMP DP  RH WIND       PRES   REMARKS
SHELTON        PTCLDY    47  43  86 S5        30.07R
6HR MIN TEMP:  46; 6HR MAX TEMP:  49; 6HR PCP: TRACE;

OLYMPIA        PTCLDY    45  42  89 W3        30.10S
6HR MIN TEMP:  45; 6HR MAX TEMP:  50; 6HR PCP: TRACE;

CHEHALIS       FAIR      46  45  93 S7        30.12R
KELSO          MOCLDY    45  42  89 S3        30.14R
6HR MIN TEMP:  45; 6HR MAX TEMP:  53;

VANCOUVER      PTCLDY    46  44  93 SE6       30.14R
6HR MIN TEMP:  45; 6HR MAX TEMP:  55;

SCAPPOOSE, OR  CLEAR     37  37 100 W3        30.14R FOG
6HR MIN TEMP:  37; 6HR MAX TEMP:  52;

PORTLAND, OR   PTCLDY    43  41  93 SE6       30.15R
6HR MIN TEMP:  43; 6HR MAX TEMP:  54;

$$

WAZ021-516-517-250700-
WASHINGTON COAST

CITY           SKY/WX    TMP DP  RH WIND       PRES   REMARKS
FORKS          CLOUDY    51  49  92 S8G18     30.00R
6HR MIN TEMP:  49; 6HR MAX TEMP:  51; 6HR PCP:  0.22;

HOQUIAM        CLOUDY    50  47  89 SE10      30.08R
6HR MIN TEMP:  50; 6HR MAX TEMP:  51; 6HR PCP: TRACE;

ASTORIA, OR    CLOUDY    43  42  97 SE3       30.09S
6HR MIN TEMP:  43; 6HR MAX TEMP:  51;

$$

WAZ019-023-024-040-567>569-250700-
CASCADE MOUNTAINS AND COLUMBIA GORGE

CITY           SKY/WX    TMP DP  RH WIND       PRES   REMARKS
STAMPEDE PASS  CLOUDY    34  31  88 CALM      30.07R
6HR MIN TEMP:  33; 6HR MAX TEMP:  34; 6HR PCP: TRACE;

TROUTDALE, OR  PTCLDY    42  39  89 E5        30.16R
6HR MIN TEMP:  41; 6HR MAX TEMP:  56;

HOOD RIVER, OR PTCLDY    36  36 100 S5        30.17R
THE DALLES, OR CLEAR     37  34  89 CALM      30.17R
6HR MIN TEMP:  37; 6HR MAX TEMP:  52;

$$

WAZ026-027-041>044-520-521-250700-
EAST SLOPES

CITY           SKY/WX    TMP DP  RH WIND       PRES   REMARKS
OMAK           MOCLDY    40  33  76 SW5       30.07R
6HR MIN TEMP:  39; 6HR MAX TEMP:  47;

WENATCHEE      PTCLDY    35  30  82 NE5       30.09R
6HR MIN TEMP:  35; 6HR MAX TEMP:  45;

ELLENSBURG     CLEAR     32  29  88 CALM      30.10R
6HR MIN TEMP:  31; 6HR MAX TEMP:  47;

YAKIMA         CLEAR     34  31  88 W7        30.12R
6HR MIN TEMP:  32; 6HR MAX TEMP:  50;

SUNNYSIDE ARPT CLEAR     33  31  93 NE5       30.13S
6HR MIN TEMP:  32; 6HR MAX TEMP:  51;

YAKIMA TC      FAIR      35  32  88 CALM      30.10R
6HR MIN TEMP:  32; 6HR MAX TEMP:  49;

$$

WAZ028-034-035-250700-
COLUMBIA BASIN

CITY           SKY/WX    TMP DP  RH WIND       PRES   REMARKS
EPHRATA        PTCLDY    38  28  67 SW3       30.09R
6HR MIN TEMP:  36; 6HR MAX TEMP:  48;

MOSES LAKE     PTCLDY    36  33  89 SE5       30.10R
6HR MIN TEMP:  35; 6HR MAX TEMP:  49;

PASCO          CLEAR     40  35  83 S5        30.15R
6HR MIN TEMP:  37; 6HR MAX TEMP:  53;

RICHLAND ARPT  CLEAR     39  35  84 CALM      30.14S
6HR MIN TEMP:  39; 6HR MAX TEMP:  53;

HERMISTON, OR  CLEAR     36  35  96 CALM      30.14R
6HR MIN TEMP:  36; 6HR MAX TEMP:  52;

$$

WAZ036>038-250700-
NORTHEAST WASHINGTON

CITY           SKY/WX    TMP DP  RH WIND       PRES   REMARKS
SPOKANE GEIGER PTCLDY    37  35  92 SE6       30.11R
6HR MIN TEMP:  37; 6HR MAX TEMP:  44;

SPOKANE FELTS  MOCLDY    41  36  82 NE3       30.12S
6HR MIN TEMP:  41; 6HR MAX TEMP:  46;

FAIRCHILD AFB  PTCLDY    35  35 100 S7        30.10R
6HR MIN TEMP:  35; 6HR MAX TEMP:  43;

COEURDALENE,ID PTCLDY    40  35  83 S6        30.13R
6HR MIN TEMP:  40; 6HR MAX TEMP:  43;

DEER PARK      CLOUDY    40  35  83 S5        30.12R
6HR MIN TEMP:  40; 6HR MAX TEMP:  43;

$$

WAZ029>033-250700-
SOUTHEAST WASHINGTON

CITY           SKY/WX    TMP DP  RH WIND       PRES   REMARKS
PULLMAN        CLEAR     36  31  82 CALM      30.14R
6HR MIN TEMP:  35; 6HR MAX TEMP:  43;

LEWISTON, ID   CLEAR     39  33  79 S3        30.15S
6HR MIN TEMP:  36; 6HR MAX TEMP:  51;

WALLA WALLA    CLEAR     40  33  76 E8        30.13R
6HR MIN TEMP:  39; 6HR MAX TEMP:  50;

PENDLETON, OR  CLEAR     34  30  85 SE6       30.12R
6HR MIN TEMP:  33; 6HR MAX TEMP:  48;

$$




USA.gov is the U.S. government's official web portal to all federal, state and local government web resources and services.